This is the latest recevied weather packets stored in our database for station/object EA5GK-10. If no packets are shown the sender has not sent any weather packets the latest 10 day(s).
| Time | Temp. | Humidity | Pressure | Rain* | Wind** | Luminosity | Snow |
|---|---|---|---|---|---|---|---|
| 1788593102 | 27.78° C | 53% | 1023.1 hPa | - | - | - | - |
| 1788592202 | 27.22° C | 55% | 1023 hPa | - | - | - | - |
| 1788591302 | 26.11° C | 57% | 1022.9 hPa | - | - | - | - |
| 1788590402 | 25° C | 59% | 1022.8 hPa | - | - | - | - |
| 1788589502 | 24.44° C | 60% | 1022.6 hPa | - | - | - | - |
| 1788588601 | 24.44° C | 61% | 1022.3 hPa | - | - | - | - |
| 1788587701 | 24.44° C | 60% | 1022.2 hPa | - | - | - | - |
| 1788586801 | 24.44° C | 60% | 1021.9 hPa | - | - | - | - |
| 1788585901 | 24.44° C | 59% | 1021.8 hPa | - | - | - | - |
| 1788585001 | 25° C | 59% | 1021.5 hPa | - | - | - | - |
| 1788584101 | 25° C | 59% | 1021.5 hPa | - | - | - | - |
| 1788583201 | 25° C | 58% | 1021.4 hPa | - | - | - | - |
| 1788582301 | 25.56° C | 58% | 1021.4 hPa | - | - | - | - |
| 1788581400 | 25.56° C | 58% | 1021.5 hPa | - | - | - | - |
| 1788580500 | 25.56° C | 57% | 1021.6 hPa | - | - | - | - |
| 1788579600 | 25.56° C | 57% | 1021.4 hPa | - | - | - | - |
| 1788578700 | 26.11° C | 57% | 1021.5 hPa | - | - | - | - |
| 1788577800 | 26.11° C | 57% | 1021.5 hPa | - | - | - | - |
| 1788576900 | 26.11° C | 57% | 1021.5 hPa | - | - | - | - |
| 1788576000 | 26.67° C | 57% | 1021.5 hPa | - | - | - | - |
| 1788575100 | 26.67° C | 57% | 1021.4 hPa | - | - | - | - |
| 1788574199 | 26.67° C | 57% | 1021.4 hPa | - | - | - | - |
| 1788573299 | 27.22° C | 57% | 1021.3 hPa | - | - | - | - |
| 1788572399 | 27.22° C | 56% | 1021.3 hPa | - | - | - | - |
| 1788571499 | 27.22° C | 57% | 1021.4 hPa | - | - | - | - |
* Rain since midnight (hover to see other rain measurements)
** Current wind speed in m/s (hover to see current wind gust speed)